EHI
0 0 0 0 0 0 0 0 0 0 0 0 0 0 0 0 0 0 0 0 0 0 0 0 0 0 0 0 0 0 0 0 0 0 0 0 0 0 0 0 0 0 0
0 0 0 0 0 0 0 0 0 0 0 0 0 0 0 0 0 0 0 0 0 0 0 0 0 0 0 0 0 0 0 0 0 0 0 0 0 0 0 0 0 0 0
0 0 0 0 0 0 0 0 0 0 0 0 0 0 0 0 0 0 0 0 0 0 0 0 0 0 0 0 0 0 0 0 0 0 0 0 0 0 0 0 0 0 0
0 0 0 0 0 0 0 0 0 0 0 0 0 0 0 0 0 0 0 0 0 0 0 0 0 0 0 0 0 0 0 0 0 0 0 0 0 0 0 0 0 0 0
0 0 0 0 0 0 0 0 0 0 0 0 0 0 0 0 0 0 0 0 0 0 0 0 0 0 0 0 0 0 0 0 0 0 0 0 0 0 0 0 0 0 0
0 0 0 0 0 0 0 0 0 0 0 0 0 0 0 0 0 0 0 0 0 0 0 0 0 0 0 0 0 0 0 0 0 0 0 0 0 0 0 0 0 0 0
0 0 0 0 0 0 0 0 0 0 0 0 0 0 0 0 0 0 0 0 0 0 0 0 0 0 0 0 0 0 0 0 0 0 0 0 0 0 0 0 0 0 0
0 0 0 0 0 0 0 0 0 0 0 0 0 0 0 0 0 0 0 0 0 0 0 0 0 0 0 0 0 0 0 0 0 0 0 0 0 0 0 0 0 0 0
0 0 0 0 0 0 0 0 0 0 0 0 0 0 0 0 0 0 0 0 0 0 0 0 0 0 0 0 0 0 0 0 0 0 0 0 0 0 0 0 0 0 0
0 0 0 0 0 0 0 0 0 0 0 0 0 0 0 0 0 0 0 0 0 0 0 0 0 0 0 0 0 0 0 0 0 0 0 0 0 0 0 0 0 0 0
0 0 0 0 0 0 0 0 0 0 0 0 0 0 0 0 0 0 0 0 0 0 0 0 0 0 0 0 0 0 0 0 0 0 0 0 0 0 0 0 0 0 0
0 0 0 0 0 0 0 0 0 0 0 0 0 0 0 0 0 0 0 0 0 0 0 0 0 0 0 0 0 0 0 0 0 0 0 0 0 0 0 0 0 0 0
0 0 0 0 0 0 0 0 0 0 0 0 0 0 0 0 0 0 0 0 0 0 0 0 0 0 0 0 0 0 0 0 0 0 0 0 0 0 0 0 0 0 0
0 0 0 0 0 0 0 0 0 0 0 0 0 0 0 0 0 0 0 0 0 0 0 0 0 0 0 0 0 0 0 0 0 0 0 0 0 0 0 0 0 0 0
0 0 0 0 0 0 0 0 0 0 0 0 0 0 0 0 0 0 0 0 0 0 0 0 0 0 0 0 0 0 0 0 0 0 0 0 0 0 0 0 0 0 0
0 0 0 0 0 0 0 0 0 0 0 0 0 0 0 0 0 0 0 0 0 0 0 0 0 0 0 0 0 0 0 0 0 0 0 0 0 0 0 0 0 0 0
0 0 0 0 0 0 0 0 0 0 0 0 0 0 0 0 0 0 0 0 0 0 0 0 0 0 0 0 0 0 0 0 0 0 0 0 0 0 0 0 0 0 0
0 0 0 0 0 0 0 0 0 0 0 0 0 0 0 0 0 0 0 0 0 0 0 0 0 0 0 0 0 0 0 0 0 0 0 0 0 0 0 0 0 0 0
0 0 0 0 0 0 0 0 0 0 0 0 0 0 0 0 0 0 0 0 0 0 0 0 0 0 0 0 0 0 0 0 0 0 0 0 0 0 0 0 0 0 0
0 0 0 0 0 0 0 0 0 0 0 0 0 0 0 0 0 0 0 0 0 0 0 0 0 0 0 0 0 0 0 0 0 0 0 0 0 0 0 0 0 0 0
0 0 0 0 0 0 0 0 0 0 0 0 0 0 0 0 0 0 0 0 0 0 0 0 0 0 0 0 0 0 0 0 0 0 0 0 0 0 0 0 0 0 0
0 0 0 0 0 0 0 0 0 0 0 0 0 0 0 0 0 0 0 0 0 0 0 0 0 0 0 0 0 0 0 0 0 0 0 0 0 0 0 0 0 0 0
0 0 0 0 0 0 0 0 0 0 0 0 0 0 0 0 0 0 0 0 0 0 0 0 0 0 0 0 0 0 0 0 0 0 0 0 0 0 0 0 0 0 0
0 0 0 0 0 0 0 0 0 0 0 0 0 0 0 0 0 0 0 0 0 0 0 0 0 0 0 0 0 0 0 0 0 0 0 0 0 0 0 0 0 0 0
0 0 0 0 0 0 0 0 0 0 0 0 0 0 0 0 0 0 0 0 0 0 0 0 0 0 0 0 0 0 0 0 0 0 0 0 0 0 0 0 0 0 0
0 0 0 0 0 0 0 0 0 0 0 0 0 0 0 0 0 0 0 0 0 0 0 0 0 0 0 0 0 0 0 0 0 0 0 0 0 0 0 0 0 0 0
Wind_Speed
9 9 10 9 9 10 9 11 11 11 12 13 14 15 16 15 15 15 15 17 16 12 11 12 13 14 11 10 9 9 9 10 12 9 7 6 5 3 2 3 4 5 6
9 9 10 10 10 10 11 11 13 13 11 13 13 15 16 16 16 15 16 18 15 12 11 13 14 12 13 11 9 8 7 7 8 9 6 5 6 4 3 3 3 3 4
9 10 10 10 10 11 11 12 13 13 11 12 13 14 15 16 16 15 15 17 14 11 10 12 13 14 13 11 11 8 6 6 5 6 6 4 4 3 3 3 3 2 3
10 10 10 10 10 11 12 13 14 12 11 11 11 13 15 16 15 14 15 15 12 10 9 10 12 13 13 13 10 10 8 6 5 5 5 4 4 3 3 3 3 2 3
9 9 8 9 9 11 12 13 13 12 14 11 11 13 14 14 13 16 15 13 9 8 8 10 11 16 19 16 12 12 10 6 4 3 3 3 3 3 3 3 4 4 3
9 8 9 9 10 11 12 13 13 12 11 11 12 14 14 14 25 28 20 8 6 6 8 10 11 13 18 21 24 23 22 14 10 6 4 3 2 2 2 3 5 6 4
9 8 8 9 10 11 13 12 12 10 10 11 12 13 13 17 28 28 23 10 7 7 8 9 11 14 16 13 18 21 21 25 23 12 9 8 6 5 4 4 6 7 5
9 9 9 10 10 10 10 10 9 8 9 9 11 13 13 18 29 27 22 12 8 9 9 9 11 12 16 16 14 14 14 16 19 13 12 11 11 9 5 4 3 6 6
10 10 10 10 10 10 10 9 9 8 8 8 9 11 13 16 27 27 22 9 8 10 11 13 12 12 24 24 16 14 14 14 19 24 24 22 25 26 17 4 3 10 10
11 11 11 10 10 10 10 9 8 8 8 10 11 10 12 13 25 28 23 9 10 10 10 12 20 22 26 25 15 14 15 14 14 16 18 20 18 21 25 14 6 3 9
11 11 11 10 10 9 8 8 8 8 9 9 10 10 10 15 21 27 25 11 11 10 9 9 11 25 26 26 21 15 19 15 12 13 12 13 14 14 15 15 13 7 5
11 11 10 10 10 10 8 7 7 8 8 8 8 9 8 10 18 21 26 21 16 9 8 7 11 23 24 26 20 23 25 18 10 11 11 13 13 13 12 13 15 14 12
11 10 10 11 8 8 8 7 6 6 6 7 8 8 8 8 10 22 23 23 21 10 9 17 19 22 20 16 24 26 19 12 11 12 12 12 11 12 12 11 12 13 16
11 10 10 10 9 8 8 8 6 5 5 6 7 8 7 7 5 6 7 9 14 11 9 14 19 20 17 17 17 15 12 12 11 11 10 10 10 11 12 12 11 10 11
10 8 9 10 8 7 8 8 9 5 8 6 4 5 6 5 10 17 11 7 6 9 8 6 7 9 10 10 10 10 10 10 11 10 10 10 11 11 12 11 11 10 11
10 8 7 7 7 7 6 8 15 16 17 16 14 10 8 12 15 17 17 18 18 19 11 6 8 9 9 9 9 9 9 9 9 9 9 9 9 9 9 9 10 10 11
8 7 7 8 7 7 8 7 8 11 16 16 16 14 12 13 14 14 15 15 16 15 6 4 4 5 5 6 6 6 6 7 6 6 7 7 7 8 8 8 8 8 9
8 9 9 6 6 6 6 6 6 7 7 6 10 15 15 14 12 11 12 10 7 6 3 3 3 4 4 4 4 4 4 4 4 5 5 5 6 7 7 7 7 8 8
7 6 5 5 5 5 5 5 5 6 6 5 4 7 14 14 13 12 10 4 3 3 3 3 3 3 3 3 3 3 4 4 4 4 4 5 5 5 5 6 6 11 9
6 14 12 6 5 6 5 5 5 5 5 5 5 5 5 5 5 6 5 4 3 3 3 3 3 3 3 3 3 3 3 3 4 3 3 3 4 3 4 5 5 5 5
5 8 14 8 6 6 6 5 5 5 5 6 5 8 13 4 4 5 5 4 3 3 3 3 3 4 3 2 2 3 3 3 2 2 2 2 3 3 3 3 3 4 4
5 5 5 6 6 6 7 6 6 6 6 7 6 8 14 6 4 5 5 5 4 4 4 4 3 3 3 2 2 2 2 3 2 2 2 2 1 1 1 2 2 2 2
5 6 6 6 6 11 10 8 8 7 7 8 8 7 7 6 6 6 6 6 4 4 4 4 4 4 4 3 3 3 3 3 2 1 1 2 2 1 1 0 0 0 1
5 6 6 6 7 7 8 9 9 10 10 9 8 8 8 7 8 9 8 7 6 6 5 5 5 6 7 5 4 4 4 4 4 3 3 3 3 2 2 2 2 2 2
5 5 6 6 8 8 9 10 10 11 11 11 10 10 9 8 9 9 8 8 8 8 8 7 6 6 8 8 6 5 8 11 9 5 4 4 4 4 4 3 2 2 2
5 5 5 6 7 8 9 9 10 11 11 11 11 11 11 10 9 9 9 8 9 9 9 8 9 10 10 8 9 12 14 14 13 12 5 4 5 4 4 4 4 4 3
Wind_Direction
333 330 326 324 327 329 328 327 326 323 326 330 332 331 330 329 329 326 324 325 322 320 325 323 319 316 309 305 283 256 241 237 246 258 267 282 294 280 246 211 206 202 205
331 329 326 328 330 330 328 328 325 322 326 330 331 330 329 328 324 323 323 324 320 319 325 324 323 321 318 311 306 294 273 254 246 251 256 262 263 260 237 224 215 201 195
332 328 327 328 329 328 327 327 322 320 324 327 329 329 326 323 319 317 318 317 316 313 319 324 324 324 325 320 315 310 296 282 263 253 251 249 252 250 242 233 210 190 179
330 323 323 324 326 325 325 322 318 320 322 323 326 324 319 316 312 308 313 313 312 311 318 328 328 330 334 333 333 333 322 306 284 263 250 243 241 243 214 204 197 172 162
319 316 316 319 321 321 321 319 321 323 323 319 321 318 315 315 312 313 313 313 312 319 334 340 340 350 357 358 0 360 355 347 330 298 267 240 226 221 214 188 183 155 136
314 313 317 322 323 322 322 326 327 324 320 322 320 316 316 321 321 327 333 326 333 349 355 353 353 357 10 8 12 16 17 16 12 1 344 321 294 265 250 203 172 165 161
317 320 324 323 322 324 328 327 324 322 324 323 319 318 318 320 331 338 353 7 11 12 13 11 11 7 21 12 11 16 16 20 26 21 13 7 353 339 316 249 197 170 146
329 333 329 325 322 323 324 323 321 321 321 317 318 323 326 330 340 352 14 16 20 23 21 20 21 11 24 25 13 16 15 15 17 20 18 12 6 357 320 277 212 134 108
338 337 331 325 324 326 327 326 325 322 320 319 323 328 333 336 348 5 23 9 21 25 23 24 27 23 28 30 19 17 18 13 13 19 22 22 20 20 17 1 176 159 142
339 334 327 326 328 329 330 328 327 328 330 331 335 336 339 344 357 12 28 21 27 31 25 16 24 31 29 33 25 18 23 14 9 9 15 16 18 19 23 22 357 167 139
333 328 329 330 330 331 330 328 329 334 336 336 339 343 347 358 1 14 30 37 34 31 26 15 18 28 29 32 32 26 27 23 13 14 14 15 16 18 19 19 18 21 92
332 332 333 332 334 342 332 331 334 339 343 344 347 351 354 357 6 12 21 31 38 24 17 12 21 29 29 30 32 30 28 25 19 21 21 19 16 13 12 19 26 33 41
334 335 335 334 335 338 338 337 339 344 349 355 356 356 357 360 4 21 21 21 25 27 15 23 27 30 28 26 28 30 26 23 21 24 24 20 14 11 11 16 21 34 42
334 337 339 339 340 341 346 347 344 344 351 2 358 353 350 352 351 8 9 13 17 23 18 19 24 26 29 26 27 26 22 24 26 22 20 18 15 17 21 20 23 26 44
333 339 341 341 338 343 349 350 354 351 5 11 346 340 349 350 14 24 22 14 18 32 26 14 17 17 20 20 22 24 23 21 24 21 19 21 24 26 27 26 29 35 46
337 343 341 340 342 345 345 348 359 4 8 12 9 7 357 5 14 17 15 18 28 32 30 19 21 20 18 16 16 17 20 22 21 23 21 20 23 27 30 30 36 41 46
332 337 340 341 339 345 350 351 348 354 4 6 5 3 2 356 360 3 6 13 18 24 23 8 9 10 10 9 7 6 11 15 13 18 20 16 20 27 35 38 38 45 50
330 337 342 328 330 335 341 344 344 344 343 344 352 355 356 352 348 349 359 7 360 8 1 359 358 357 0 1 1 359 357 6 7 12 16 15 20 26 32 37 41 47 51
330 325 327 323 325 328 330 333 333 333 331 327 323 338 349 349 349 348 356 356 331 337 342 344 344 348 350 352 353 354 353 356 4 8 17 17 18 26 30 30 38 52 57
327 337 344 335 325 324 323 322 322 320 319 317 315 310 315 334 332 332 334 318 318 320 325 327 327 330 335 341 342 346 347 350 3 15 12 16 18 26 32 35 36 42 46
318 323 336 334 321 320 319 316 313 312 311 312 306 312 328 325 306 303 305 306 304 302 300 300 303 309 314 323 337 340 340 337 348 359 4 13 19 23 25 32 32 39 45
315 313 316 317 321 325 330 322 313 307 306 307 306 311 321 316 287 284 284 285 279 276 275 273 272 274 274 270 273 297 314 319 329 345 350 349 354 359 13 27 33 35 43
320 319 321 322 324 334 338 328 323 317 310 304 301 302 302 296 292 289 284 279 267 263 262 262 262 264 263 252 239 234 244 259 263 258 295 314 313 302 289 255 213 78 35
325 324 325 327 332 336 335 334 332 330 326 321 312 302 294 287 283 282 280 275 270 263 255 251 252 253 257 253 240 232 227 234 231 225 232 242 254 263 262 248 234 222 218
326 328 331 332 337 339 337 335 334 334 335 336 334 327 316 303 291 282 275 270 267 263 259 252 248 249 251 248 240 234 251 259 256 238 216 219 228 229 228 235 232 225 217
328 335 336 336 340 340 338 336 334 333 335 338 339 337 333 328 317 304 290 276 265 259 255 251 243 240 238 239 240 247 256 256 256 255 230 204 211 215 211 215 218 220 218